Location: Treviso
(45.6669°N, 12.2430°E)
Time: 07:48:41
(UTC+01:00)

ISS - Pass Details

Date: 15 January 2018
Orbit: 402 x 407 km, 51.6° (Epoch: 21 January)

Event Time Altitude Azimuth Distance (km) Brightness Sun altitude
Exits shadow 05:26:33 28° 141° (SE) 803 -2.0 -24.2°
Drops below altitude 10° 05:28:15 10° 132° (SE) 1,460 -0.3 -23.9°
Sets 05:30:20 0° 129° (SE) 2,318 0.9 -23.5°
